K5NCO Weather Reports


Display with metric or nautical units.
time (UTC)temp
F
wind
direction
speed
MPH
gust
MPH
rain 1hr
in
rain 24hr
in
rain mn
in
humidity
%
barometer
mb
20260906084934 82 192 4.0 6.0 0.00 0.00 0.00 78 1013.9
20260906084429 82 190 5.0 7.0 0.00 0.00 0.00 77 1013.9
20260906083928 82 148 1.0 2.0 0.00 0.00 0.00 77 1014.0
20260906083424 82 165 4.0 4.0 0.00 0.00 0.00 77 1014.0
20260906082923 82 210 2.0 2.0 0.00 0.00 0.00 77 1013.9
20260906082419 82 171 4.0 4.0 0.00 0.00 0.00 77 1014.0
20260906081914 82 230 4.0 6.0 0.00 0.00 0.00 77 1013.8
20260906081410 83 230 4.0 4.0 0.00 0.00 0.00 76 1014.0
20260906080906 83 227 1.0 1.0 0.00 0.00 0.00 76 1014.0
20260906080402 83 135 3.0 3.0 0.00 0.00 0.00 76 1014.0
20260906075901 83 176 5.0 7.0 0.00 0.00 0.00 76 1014.1
20260906075356 83 205 3.0 3.0 0.00 0.00 0.00 76 1014.2
20260906074852 83 163 6.0 7.0 0.00 0.00 0.00 75 1014.2
20260906074346 83 170 5.0 8.0 0.00 0.00 0.00 75 1014.2
20260906073845 83 201 2.0 2.0 0.00 0.00 0.00 75 1014.3
20260906073340 83 217 6.0 7.0 0.00 0.00 0.00 75 1014.4
20260906072836 84 187 1.0 2.0 0.00 0.00 0.00 74 1014.4
20260906072332 84 207 2.0 2.0 0.00 0.00 0.00 74 1014.5
20260906071827 84 198 6.0 8.0 0.00 0.00 0.00 74 1014.4
20260906071322 84 176 5.0 6.0 0.00 0.00 0.00 74 1014.6
20260906070818 84 185 2.0 3.0 0.00 0.00 0.00 74 1014.5
20260906070314 84 173 4.0 4.0 0.00 0.00 0.00 74 1014.6
20260906065814 84 188 3.0 3.0 0.00 0.00 0.00 73 1014.7
20260906065309 84 192 4.0 6.0 0.00 0.00 0.00 73 1014.7
20260906064805 84 195 6.0 9.0 0.00 0.00 0.00 74 1014.7
20260906064301 84 114 6.0 8.0 0.00 0.00 0.00 74 1014.9
20260906063801 84 201 2.0 3.0 0.00 0.00 0.00 74 1014.7
20260906063256 84 158 6.0 8.0 0.00 0.00 0.00 74 1014.9
20260906062751 84 144 7.0 9.0 0.00 0.00 0.00 74 1014.9
20260906062250 84 145 7.0 9.0 0.00 0.00 0.00 73 1015.1
20260906061747 84 190 2.0 3.0 0.00 0.00 0.00 74 1015.1
20260906061243 84 119 4.0 4.0 0.00 0.00 0.00 74 1015.1
20260906060738 84 176 6.0 7.0 0.00 0.00 0.00 73 1014.9
20260906060235 84 169 5.0 8.0 0.00 0.00 0.00 74 1015.1
20260906055731 84 185 2.0 3.0 0.00 0.00 0.00 74 1015.2
20260906055226 84 154 2.0 3.0 0.00 0.00 0.00 74 1015.3
20260906054721 84 123 1.0 2.0 0.00 0.00 0.00 74 1014.9
20260906054216 84 206 3.0 3.0 0.00 0.00 0.00 74 1015.0
20260906053713 84 120 4.0 4.0 0.00 0.00 0.00 74 1015.0
20260906053208 84 125 5.0 6.0 0.00 0.00 0.00 74 1014.9
20260906052703 84 147 3.0 4.0 0.00 0.00 0.00 74 1015.1
20260906052200 84 144 3.0 3.0 0.00 0.00 0.00 74 1014.9
20260906051656 84 128 2.0 2.0 0.00 0.00 0.00 74 1015.0
20260906051155 84 139 4.0 6.0 0.00 0.00 0.00 74 1015.1
20260906050651 84 120 1.0 3.0 0.00 0.00 0.00 74 1015.3
20260906050146 84 166 3.0 3.0 0.00 0.00 0.00 74 1015.1
20260906045644 84 117 4.0 4.0 0.00 0.00 0.00 73 1015.3
20260906045140 84 137 3.0 3.0 0.00 0.00 0.00 73 1015.1
20260906044636 84 117 6.0 8.0 0.00 0.00 0.00 73 1015.2
20260906044131 84 126 3.0 3.0 0.00 0.00 0.00 73 1015.1
20260906043627 84 101 1.0 2.0 0.00 0.00 0.00 73 1015.2
20260906043122 84 104 6.0 8.0 0.00 0.00 0.00 72 1015.3
20260906042621 84 134 5.0 6.0 0.00 0.00 0.00 72 1015.1
20260906042115 84 79 5.0 7.0 0.00 0.00 0.00 72 1015.1
20260906041612 84 128 6.0 8.0 0.00 0.00 0.00 71 1015.2
20260906041106 84 95 1.0 2.0 0.00 0.00 0.00 71 1015.0
20260906040602 84 153 4.0 4.0 0.00 0.00 0.00 71 1014.9
20260906040057 84 99 4.0 6.0 0.00 0.00 0.00 71 1015.0
20260906035552 84 100 5.0 6.0 0.00 0.00 0.00 70 1014.9
20260906035048 84 138 5.0 6.0 0.00 0.00 0.00 70 1015.0
20260906034548 84 84 4.0 4.0 0.00 0.00 0.00 69 1015.3
20260906034037 85 104 8.0 8.0 0.00 0.00 0.00 69 1015.0
20260906033532 85 71 1.0 1.0 0.00 0.00 0.00 68 1015.0
20260906033027 85 87 8.0 13.0 0.00 0.00 0.00 68 1015.0
20260906032524 85 90 6.0 8.0 0.00 0.00 0.00 67 1015.0
20260906032019 86 84 5.0 8.0 0.00 0.00 0.00 66 1014.9
20260906031515 86 49 5.0 8.0 0.00 0.00 0.00 65 1014.9
20260906031009 86 127 9.0 10.0 0.00 0.00 0.00 65 1014.7
20260906030503 86 98 6.0 9.0 0.00 0.00 0.00 64 1014.7
20260906030003 87 56 2.0 4.0 0.00 0.00 0.00 64 1014.6
20260906025502 87 105 7.0 11.0 0.00 0.00 0.00 64 1014.5
20260906025001 87 53 5.0 8.0 0.00 0.00 0.00 63 1014.6
20260906024456 87 64 3.0 6.0 0.00 0.00 0.00 63 1014.3
20260906023955 87 93 6.0 8.0 0.00 0.00 0.00 62 1014.2
20260906023453 88 37 4.0 7.0 0.00 0.00 0.00 61 1014.0
20260906022953 88 74 7.0 10.0 0.00 0.00 0.00 60 1013.8
20260906022442 88 83 7.0 10.0 0.00 0.00 0.00 60 1013.7
20260906021937 89 100 7.0 10.0 0.00 0.00 0.00 59 1013.7
20260906021432 89 80 2.0 3.0 0.00 0.00 0.00 58 1013.5
20260906020926 89 117 1.0 2.0 0.00 0.00 0.00 58 1013.5
20260906020421 89 99 4.0 4.0 0.00 0.00 0.00 57 1013.2
20260906015915 89 85 6.0 9.0 0.00 0.00 0.00 57 1013.0
20260906015414 90 89 4.0 6.0 0.00 0.00 0.00 56 1013.1
20260906014909 90 76 9.0 13.0 0.00 0.00 0.00 56 1012.9
20260906014408 90 85 7.0 8.0 0.00 0.00 0.00 56 1012.9
20260906013905 90 83 8.0 13.0 0.00 0.00 0.00 56 1013.0
20260906013400 90 59 10.0 11.0 0.00 0.00 0.00 55 1012.8
20260906012855 91 83 5.0 7.0 0.00 0.00 0.00 55 1012.9
20260906012350 91 67 8.0 13.0 0.00 0.00 0.00 55 1012.6
20260906011850 91 98 5.0 7.0 0.00 0.00 0.00 55 1012.8
20260906011345 91 90 12.0 14.0 0.00 0.00 0.00 54 1012.5
20260906010841 91 40 4.0 7.0 0.00 0.00 0.00 54 1012.7
20260906010336 92 115 5.0 6.0 0.00 0.00 0.00 53 1012.6
20260906005832 92 79 2.0 3.0 0.00 0.00 0.00 53 1012.8
20260906005331 92 127 8.0 11.0 0.00 0.00 0.00 52 1012.6
20260906004830 93 50 12.0 15.0 0.00 0.00 0.00 51 1012.7
20260906004330 93 76 5.0 13.0 0.00 0.00 0.00 51 1012.7
20260906003825 93 105 4.0 6.0 0.00 0.00 0.00 50 1012.7
20260906003320 94 67 4.0 7.0 0.00 0.00 0.00 50 1012.5
20260906002816 94 26 3.0 4.0 0.00 0.00 0.00 50 1012.5
20260906002315 94 90 5.0 8.0 0.00 0.00 0.00 49 1012.4
20260906001812 94 69 6.0 8.0 0.00 0.00 0.00 48 1012.6
20260906001307 94 114 3.0 6.0 0.00 0.00 0.00 49 1012.5
20260906000807 94 54 6.0 8.0 0.00 0.00 0.00 48 1012.3
20260906000303 94 57 11.0 14.0 0.00 0.00 0.00 48 1012.7
20260905235756 95 98 6.0 11.0 0.00 0.00 0.00 47 1012.4
20260905235256 95 73 6.0 9.0 0.00 0.00 0.00 46 1012.5
20260905234752 95 88 7.0 13.0 0.00 0.00 0.00 46 1012.3
20260905234246 95 71 4.0 7.0 0.00 0.00 0.00 46 1012.4
20260905233742 96 103 10.0 11.0 0.00 0.00 0.00 44 1012.1
20260905233242 96 98 6.0 7.0 0.00 0.00 0.00 42 1012.2
20260905232736 96 80 4.0 4.0 0.00 0.00 0.00 42 1012.1
20260905232232 97 97 3.0 6.0 0.00 0.00 0.00 42 1012.1
20260905231728 96 120 6.0 8.0 0.00 0.00 0.00 41 1012.2
20260905231223 96 101 7.0 7.0 0.00 0.00 0.00 42 1012.0
20260905230719 97 97 4.0 4.0 0.00 0.00 0.00 40 1012.1
20260905230217 97 80 1.0 2.0 0.00 0.00 0.00 41 1012.3
20260905225716 96 54 2.0 3.0 0.00 0.00 0.00 43 1012.2
20260905225212 96 89 5.0 6.0 0.00 0.00 0.00 43 1012.3
20260905224711 96 95 2.0 2.0 0.00 0.00 0.00 43 1012.2
20260905224206 98 129 3.0 4.0 0.00 0.00 0.00 41 1012.1
20260905223703 98 344 0.0 0.0 0.00 0.00 0.00 42 1012.2
20260905223159 97 285 2.0 2.0 0.00 0.00 0.00 41 1012.2
20260905222654 97 110 0.0 0.0 0.00 0.00 0.00 41 1012.2
20260905222148 97 56 4.0 6.0 0.00 0.00 0.00 40 1012.4
20260905221644 98 92 1.0 1.0 0.00 0.00 0.00 40 1012.4
20260905221141 97 197 4.0 7.0 0.00 0.00 0.00 41 1012.2
20260905220636 98 96 7.0 8.0 0.00 0.00 0.00 40 1012.5
20260905220132 98 258 0.0 0.0 0.00 0.00 0.00 39 1012.4
20260905215631 98 130 3.0 4.0 0.00 0.00 0.00 40 1012.4
20260905215127 97 131 0.0 0.0 0.00 0.00 0.00 41 1012.5
20260905214623 95 141 0.0 0.0 0.00 0.00 0.00 42 1012.4
20260905214118 95 163 0.0 0.0 0.00 0.00 0.00 41 1012.5
20260905213613 97 83 2.0 3.0 0.00 0.00 0.00 41 1012.4
20260905213108 96 93 4.0 7.0 0.00 0.00 0.00 41 1012.4
20260905212603 95 117 6.0 7.0 0.00 0.00 0.00 42 1012.4
20260905212103 95 59 2.0 4.0 0.00 0.00 0.00 42 1012.6
20260905211558 95 31 2.0 3.0 0.00 0.00 0.00 43 1012.8
20260905211053 97 134 3.0 4.0 0.00 0.00 0.00 43 1012.7
20260905210549 98 111 0.0 0.0 0.00 0.00 0.00 41 1012.8
20260905210044 97 66 0.0 0.0 0.00 0.00 0.00 41 1013.0
20260905205543 98 215 0.0 0.0 0.00 0.00 0.00 40 1012.7
20260905205043 97 120 6.0 7.0 0.00 0.00 0.00 42 1013.0
20260905204538 98 152 4.0 6.0 0.00 0.00 0.00 41 1013.0
20260905204033 98 253 0.0 0.0 0.00 0.00 0.00 41 1013.2
20260905203533 97 33 0.0 1.0 0.00 0.00 0.00 41 1013.4
20260905203028 95 14 3.0 4.0 0.00 0.00 0.00 43 1013.4
20260905202523 95 32 0.0 0.0 0.00 0.00 0.00 45 1013.4
20260905202019 95 68 1.0 3.0 0.00 0.00 0.00 45 1013.6
20260905201514 96 111 4.0 7.0 0.00 0.00 0.00 42 1013.6
20260905201014 96 104 2.0 4.0 0.00 0.00 0.00 42 1013.7
20260905200509 95 69 1.0 3.0 0.00 0.00 0.00 44 1013.7
20260905200008 95 46 3.0 4.0 0.00 0.00 0.00 43 1013.9
20260905195502 95 104 3.0 3.0 0.00 0.00 0.00 44 1014.0
20260905194958 95 221 0.0 0.0 0.00 0.00 0.00 44 1013.9
20260905194452 94 219 3.0 4.0 0.00 0.00 0.00 45 1014.3
20260905193946 95 174 5.0 6.0 0.00 0.00 0.00 45 1014.2
20260905193441 95 111 4.0 7.0 0.00 0.00 0.00 44 1014.3
20260905192936 95 165 4.0 6.0 0.00 0.00 0.00 45 1014.3
20260905192431 94 190 9.0 10.0 0.00 0.00 0.00 46 1014.5
20260905191926 95 135 8.0 10.0 0.00 0.00 0.00 46 1014.5
20260905191425 95 27 1.0 1.0 0.00 0.00 0.00 46 1014.6
20260905190920 95 82 4.0 6.0 0.00 0.00 0.00 46 1014.6
20260905190418 94 229 2.0 2.0 0.00 0.00 0.00 46 1014.9
20260905185917 94 113 4.0 6.0 0.00 0.00 0.00 47 1015.0
20260905185412 94 188 6.0 7.0 0.00 0.00 0.00 46 1015.1
20260905184910 93 308 2.0 2.0 0.00 0.00 0.00 48 1015.3
20260905184405 93 169 8.0 9.0 0.00 0.00 0.00 48 1015.2
20260905183903 94 141 2.0 3.0 0.00 0.00 0.00 49 1015.3
20260905183359 92 96 2.0 4.0 0.00 0.00 0.00 51 1015.4
20260905182853 93 83 7.0 8.0 0.00 0.00 0.00 48 1015.4
20260905182347 92 120 6.0 7.0 0.00 0.00 0.00 51 1015.5
20260905181842 92 165 2.0 3.0 0.00 0.00 0.00 50 1015.7
20260905181337 93 206 6.0 7.0 0.00 0.00 0.00 47 1015.8
20260905180836 92 172 6.0 8.0 0.00 0.00 0.00 50 1015.8
20260905180331 92 84 4.0 4.0 0.00 0.00 0.00 53 1016.0
20260905175825 92 245 3.0 3.0 0.00 0.00 0.00 51 1016.0
20260905175320 91 173 5.0 8.0 0.00 0.00 0.00 52 1016.0
20260905174815 91 189 7.0 8.0 0.00 0.00 0.00 51 1015.9
20260905174311 91 178 5.0 6.0 0.00 0.00 0.00 51 1016.2
20260905173807 91 144 6.0 7.0 0.00 0.00 0.00 52 1016.3
20260905173303 91 170 5.0 7.0 0.00 0.00 0.00 55 1016.2
20260905172803 91 76 9.0 11.0 0.00 0.00 0.00 54 1016.2
20260905172301 90 110 2.0 4.0 0.00 0.00 0.00 56 1016.5
20260905171757 91 158 4.0 7.0 0.00 0.00 0.00 55 1016.6
20260905171253 89 147 5.0 6.0 0.00 0.00 0.00 58 1016.7
20260905170750 91 68 2.0 3.0 0.00 0.00 0.00 58 1016.6
20260905170245 91 214 5.0 8.0 0.00 0.00 0.00 56 1016.8
20260905165744 89 125 4.0 7.0 0.00 0.00 0.00 60 1016.8
20260905165240 90 120 7.0 9.0 0.00 0.00 0.00 59 1016.7
20260905164734 89 192 5.0 6.0 0.00 0.00 0.00 62 1016.9
20260905164229 89 103 4.0 7.0 0.00 0.00 0.00 63 1016.7
20260905163725 88 162 6.0 7.0 0.00 0.00 0.00 65 1016.9
20260905163221 89 97 4.0 6.0 0.00 0.00 0.00 63 1017.0
20260905162717 88 209 6.0 8.0 0.00 0.00 0.00 65 1016.8
20260905162216 88 183 2.0 3.0 0.00 0.00 0.00 66 1016.9
20260905161711 89 120 6.0 8.0 0.00 0.00 0.00 65 1016.6
20260905161209 88 141 4.0 4.0 0.00 0.00 0.00 67 1016.8
20260905160708 88 128 2.0 2.0 0.00 0.00 0.00 67 1016.8
20260905160202 88 187 1.0 1.0 0.00 0.00 0.00 68 1016.8
20260905155701 86 167 5.0 7.0 0.00 0.00 0.00 69 1016.8
20260905155201 87 187 8.0 9.0 0.00 0.00 0.00 69 1016.8
20260905154656 86 170 5.0 7.0 0.00 0.00 0.00 70 1017.0
20260905154151 87 145 2.0 2.0 0.00 0.00 0.00 70 1016.7
20260905153648 87 172 4.0 6.0 0.00 0.00 0.00 70 1016.8
20260905153142 86 275 4.0 4.0 0.00 0.00 0.00 72 1016.8
20260905152637 86 155 6.0 7.0 0.00 0.00 0.00 72 1016.5
20260905152131 86 204 6.0 8.0 0.00 0.00 0.00 71 1016.8
20260905151626 86 180 5.0 6.0 0.00 0.00 0.00 71 1016.8
20260905151122 86 186 4.0 4.0 0.00 0.00 0.00 71 1016.9
20260905150617 85 207 1.0 1.0 0.00 0.00 0.00 74 1016.7
20260905150115 85 163 6.0 7.0 0.00 0.00 0.00 74 1016.8
20260905145609 84 208 2.0 3.0 0.00 0.00 0.00 78 1016.8
20260905145108 83 212 6.0 7.0 0.00 0.00 0.00 78 1016.8
20260905144603 84 164 6.0 7.0 0.00 0.00 0.00 76 1016.7
20260905144102 84 320 4.0 4.0 0.00 0.00 0.00 76 1016.6
20260905143601 84 111 1.0 2.0 0.00 0.00 0.00 82 1016.6
20260905143057 84 207 1.0 1.0 0.00 0.00 0.00 81 1016.6
20260905142555 83 112 2.0 2.0 0.00 0.00 0.00 83 1016.7
20260905142050 83 100 4.0 4.0 0.00 0.00 0.00 82 1016.6
20260905141545 82 215 5.0 6.0 0.00 0.00 0.00 84 1016.7
20260905141041 82 210 4.0 4.0 0.00 0.00 0.00 84 1016.8
20260905140536 82 229 4.0 4.0 0.00 0.00 0.00 85 1016.7
20260905140035 81 190 3.0 4.0 0.00 0.00 0.00 86 1016.5
20260905135530 81 178 1.0 1.0 0.00 0.00 0.00 87 1016.8
20260905135025 81 180 5.0 6.0 0.00 0.00 0.00 87 1016.5
20260905134520 82 191 2.0 2.0 0.00 0.00 0.00 87 1016.5
20260905134019 82 217 2.0 2.0 0.00 0.00 0.00 87 1016.4
20260905133514 82 266 1.0 1.0 0.00 0.00 0.00 87 1016.4
20260905133013 81 124 3.0 3.0 0.00 0.00 0.00 89 1016.4
20260905132509 81 100 2.0 3.0 0.00 0.00 0.00 89 1016.4
20260905132009 80 119 3.0 3.0 0.00 0.00 0.00 90 1016.3
20260905131504 80 150 2.0 2.0 0.00 0.00 0.00 89 1016.2
20260905130959 80 90 0.0 0.0 0.00 0.00 0.00 90 1016.2
20260905123621 77 132 0.0 0.0 0.00 0.00 0.00 94 1015.6
20260905123118 77 132 0.0 0.0 0.00 0.00 0.00 94 1015.6
20260905122612 77 132 0.0 0.0 0.00 0.00 0.00 94 1015.6
20260905122106 77 148 0.0 0.0 0.00 0.00 0.00 94 1015.8
20260905121556 77 149 3.0 3.0 0.00 0.00 0.00 94 1015.7
20260905121051 77 109 1.0 1.0 0.00 0.00 0.00 94 1015.6
20260905120550 77 98 0.0 0.0 0.00 0.00 0.00 94 1015.5
20260905120046 77 100 0.0 0.0 0.00 0.00 0.00 94 1015.4
20260905115544 78 136 0.0 0.0 0.00 0.00 0.00 93 1015.4
20260905115039 78 136 0.0 0.0 0.00 0.00 0.00 93 1015.3
20260905114538 78 136 0.0 0.0 0.00 0.00 0.00 93 1015.4
20260905114037 78 136 0.0 0.0 0.00 0.00 0.00 93 1015.5
20260905113532 78 134 0.0 0.0 0.00 0.00 0.00 93 1015.5
20260905113028 78 133 0.0 0.0 0.00 0.00 0.00 93 1015.4
20260905112523 78 162 0.0 0.0 0.00 0.00 0.00 93 1015.3
20260905112019 78 160 0.0 0.0 0.00 0.00 0.00 93 1015.3
20260905111513 78 189 0.0 0.0 0.00 0.00 0.00 93 1015.4
20260905111013 78 206 0.0 0.0 0.00 0.00 0.00 93 1015.4
20260905110512 78 220 0.0 0.0 0.00 0.00 0.00 93 1015.3
20260905110007 78 133 0.0 0.0 0.00 0.00 0.00 92 1015.4
20260905105502 78 143 0.0 0.0 0.00 0.00 0.00 92 1015.3
20260905105001 78 223 0.0 0.0 0.00 0.00 0.00 92 1015.4
20260905104456 78 234 0.0 0.0 0.00 0.00 0.00 92 1015.3
20260905103951 78 218 0.0 0.0 0.00 0.00 0.00 92 1015.2
20260905103446 78 182 0.0 0.0 0.00 0.00 0.00 92 1015.1
20260905102942 78 191 0.0 0.0 0.00 0.00 0.00 92 1015.2
20260905102438 78 224 0.0 0.0 0.00 0.00 0.00 92 1015.1
20260905101933 78 226 0.0 0.0 0.00 0.00 0.00 92 1015.3
20260905101432 78 231 0.0 0.0 0.00 0.00 0.00 92 1015.2
20260905100927 78 230 0.0 0.0 0.00 0.00 0.00 92 1015.3
20260905100422 78 194 0.0 0.0 0.00 0.00 0.00 92 1015.1
20260905095921 78 211 0.0 0.0 0.00 0.00 0.00 92 1015.1
20260905095416 78 208 0.0 1.0 0.00 0.00 0.00 92 1015.0
20260905094910 78 187 0.0 1.0 0.00 0.00 0.00 91 1015.0
20260905094406 78 239 0.0 0.0 0.00 0.00 0.00 91 1015.1
20260905093904 78 276 0.0 0.0 0.00 0.00 0.00 91 1015.1
20260905093355 78 276 0.0 0.0 0.00 0.00 0.00 91 1015.0
20260905092850 78 277 0.0 0.0 0.00 0.00 0.00 90 1015.1
20260905092345 78 277 0.0 0.0 0.00 0.00 0.00 90 1015.1
20260905091840 78 276 0.0 0.0 0.00 0.00 0.00 90 1015.2
20260905091340 78 238 0.0 0.0 0.00 0.00 0.00 90 1015.2
20260905090838 79 219 0.0 0.0 0.00 0.00 0.00 90 1015.1
20260905090335 79 184 0.0 0.0 0.00 0.00 0.00 89 1015.0
20260905085834 79 204 0.0 0.0 0.00 0.00 0.00 89 1015.0